This is the latest recevied weather packets stored in our database for station/object W0BJ. If no packets are shown the sender has not sent any weather packets the latest 1 day(s).
| Time | Temp. | Humidity | Pressure | Rain* | Wind** | Luminosity | Snow |
|---|---|---|---|---|---|---|---|
| 1778053998 | 8.33° C | 93% | 1015.3 hPa | 0.51 mm | 0 m/s | - | - |
| 1778053864 | 8.33° C | 93% | 1015.3 hPa | 0.51 mm | 0 m/s | - | - |
| 1778053747 | 8.33° C | 93% | 1015.3 hPa | 0.51 mm | 1.34 m/s, 307° | - | - |
| 1778053147 | 8.33° C | 93% | 1015.4 hPa | 0.51 mm | 0 m/s | - | - |
| 1778053097 | 8.33° C | 93% | 1015.3 hPa | 0.51 mm | 0 m/s | - | - |
| 1778052547 | 8.33° C | 93% | 1015.3 hPa | 0.76 mm | 0 m/s | - | - |
| 1778052198 | 8.33° C | 93% | 1015.6 hPa | 0.51 mm | 0 m/s | - | - |
| 1778051946 | 8.33° C | 93% | 1015.6 hPa | 0.51 mm | 0 m/s | - | - |
| 1778051348 | 8.33° C | 93% | 1015.8 hPa | 0.25 mm | 0 m/s | - | - |
| 1778051297 | 8.33° C | 93% | 1015.5 hPa | 0.25 mm | 0 m/s | - | - |
| 1778050747 | 8.33° C | 93% | 1016.1 hPa | 0.25 mm | 0 m/s | - | - |
| 1778050399 | 8.33° C | 93% | 1016.1 hPa | 0.25 mm | 0 m/s | - | - |
| 1778050147 | 8.33° C | 93% | 1016 hPa | 0.25 mm | 0 m/s | - | - |
| 1778049546 | 8.33° C | 93% | 1015.6 hPa | 0.25 mm | 0.89 m/s, 293° | - | - |
| 1778049498 | 8.33° C | 93% | 1015.5 hPa | 0.25 mm | 0 m/s | - | - |
| 1778048946 | 8.33° C | 92% | 1015.6 hPa | 0.25 mm | 0 m/s | - | - |
| 1778048598 | 8.33° C | 92% | 1015.5 hPa | 0.25 mm | 0.89 m/s, 293° | - | - |
| 1778048347 | 8.33° C | 92% | 1015.4 hPa | 0.25 mm | 0 m/s | - | - |
| 1778047747 | 8.89° C | 93% | 1015.3 hPa | 0.51 mm | 1.34 m/s, 308° | - | - |
| 1778047699 | 8.89° C | 93% | 1015.3 hPa | 0.51 mm | 0 m/s | - | - |
| 1778047146 | 8.89° C | 93% | 1015.1 hPa | 0 mm | 0 m/s | - | - |
| 1778046798 | 8.89° C | 93% | 1015.2 hPa | 0 mm | 0 m/s | - | - |
| 1778046546 | 8.89° C | 93% | 1015.3 hPa | 0 mm | 0 m/s | - | - |
| 1778045946 | 8.89° C | 93% | 1015.2 hPa | 0 mm | 0 m/s | - | - |
| 1778045898 | 8.89° C | 93% | 1015.2 hPa | 0 mm | 0 m/s | - | - |
* Rain latest hour (hover to see other rain measurements)
** Current wind speed in m/s (hover to see current wind gust speed)